www.pogodaiklimat.ru

Погода и климат >> Архив погоды >> Французская Полинезия >> Рикитея


ПОГОДА в Рикитее

  • Прогноз погоды в Рикитее
  • Монитор погоды в Рикитее

АРХИВ ПОГОДЫ в Рикитее

Время (UTC), дата Ветер
(напр.,м/с)
 
Видим.   Явления Облачность Т
(С)
Тd
(С)
f
(%)
Тe
(С)
Тes
(С)
Комфортность P
(гПа)
Po
(гПа)
Тmin
(С)
Tmax
(С)
R
(мм)
R24
(мм)
S
(см)
01 12.09 С 2 н/о 8/1 300 м
[Cu med, cong As op]
+21.2 +18.4 84 +25 +27 комфорт 1013.1 1002.8
02 12.09 С 2 н/о н/о +20.6 +17.6 83 +25 +25 комфорт 1013.3 1003.0
03 12.09 С 2
{8}
н/о н/о +20.4 +18.2 87 +25 +25 комфорт 1013.8 1003.5
04 12.09 С 2 н/о н/о +20.2 +18.1 88 +24 +24 комфорт 1014.2 1003.8
05 12.09 С 2 н/о н/о +20.5 +18.8 90 +25 +25 комфорт 1014.5 1004.2
06 12.09 С 5
{8}
н/о н/о +20.9 +19.4 91 +26 +26 душно 1014.6 1004.3
07 12.09 С 3 н/о н/о +20.8 +18.6 87 +25 +25 комфорт 1013.6 1003.3
08 12.09 С 2 н/о н/о +20.6 +18.9 90 +25 +25 комфорт 1013.2 1002.9
09 12.09 С 3
{13}
н/о н/о +21.1 +16.9 77 +25 +25 комфорт 1012.4 1002.1
10 12.09 С 3 н/о н/о +20.9 +17.5 81 +25 +25 комфорт 1011.9 1001.6
11 12.09 С 2 н/о н/о +21.3 +18.3 83 +26 +26 душно 1011.1 1000.8
12 12.09 С 5
{12}
н/о н/о +21.0 +18.2 84 +25 +25 комфорт 1010.5 1000.2 +21.3 +21.3
13 12.09 С 2 н/о н/о +21.1 +19.2 89 +26 +26 душно 1010.4 1000.1
14 12.09 С 2 н/о н/о +20.0 +19.3 96 +24 +24 комфорт 1010.7 1000.4 4
15 12.09 С 2
{8}
22 км {ливн. осадки, дождь} 10/10 480 м
[Cu Sc]
+20.5 +19.7 95 +25 +25 комфорт 1010.6 1000.3 4
16 12.09 С 2 н/о 10/10 300 м
[Cu Sc]
+21.1 1011.1
17 12.09 С 2 н/о осадки на расстоянии 10/10 300 м
[Cu Sc]
+21.6 1011.5 1001.2
18 12.09 С 5
{10}
12 км осадки на расстоянии {ливн. осадки} 9/9 480 м
[Cu Sc]
+22.4 +21.2 93 +29 +30 очень
душно
1010.9 1000.7 0.4
19 12.09 СЗ 2 н/о осадки на расстоянии 9/9 300 м
[Cu Sc]
+21.8 1011.2 1000.9
20 12.09 СЗ 3 н/о 5/5 300 м
[Cu Sc]
+23.9 1010.1
21 12.09 СЗ 3
{13}
30 км {ливн. осадки, дождь} 5/5 480 м
[Cu Sc]
+24.0 +21.5 86 +31 +31 очень
душно
1009.4 999.2 0.6
22 12.09 З 1 н/о в посл. час дождь 6/6 300 м
[Cu Sc]
+22.6 1008.8 998.6
23 12.09 СЗ 1 н/о н/о +22.3 +20.6 90 +29 +29 очень
душно
1008.1 997.9 0.4
00 13.09 З 3
{9}
30 км {ливн. осадки, дождь} 8/8 480 м
[Cu Sc]
+22.9 +21.0 89 +30 +32 очень
душно
1007.9 997.7 +20.0 2 8
01 13.09 СВ 1 н/о в посл. час ливневой дождь 6/6 300 м
[Cu Sc]
+22.0 1007.6 997.4
02 13.09 ЮЗ 2 н/о н/о +22.3 +20.9 92 +29 +29 очень
душно
1008.5 998.3
03 13.09 З 2
{9}
н/о н/о +22.1 +20.9 93 +29 +29 очень
душно
1008.9 998.7 1
04 13.09 З 1 н/о н/о +21.6 +20.2 92 +27 +27 душно 1009.8 999.5
05 13.09 З 2 н/о н/о +21.6 +19.9 90 +27 +27 душно 1010.5 1000.2
06 13.09 З 2
{7}
н/о н/о +21.6 +20.1 91 +27 +27 душно 1010.9 1000.6
07 13.09 З 2 н/о н/о +20.8 +19.6 93 +26 +26 душно 1011.2 1000.9
08 13.09 З 2 н/о н/о +20.9 +19.4 91 +26 +26 душно 1011.0 1000.7
09 13.09 З 1
{5}
н/о н/о +20.9 +19.6 92 +27 +27 душно 1011.1 1000.8
10 13.09 СЗ 1 н/о н/о +20.6 +18.2 86 +25 +25 комфорт 1010.7 1000.4
11 13.09 З 1 н/о н/о +20.4 +17.4 83 +25 +25 комфорт 1009.8 999.5
12 13.09 СЗ 1
{7}
н/о н/о +20.4 +17.6 84 +25 +25 комфорт 1009.6 999.3 +24.6 +24.6
13 13.09 З 1 н/о н/о +20.5 +17.3 82 +25 +25 комфорт 1009.7 999.4
14 13.09 З 1 н/о н/о +20.4 +17.2 82 +25 +25 комфорт 1010.2 999.9
15 13.09 З 2
{8}
30 км 1/1 480 м
[Cu Sc]
+20.6 +17.6 83 +25 +25 комфорт 1011.1 1000.8
16 13.09 ЮЗ 1 н/о н/о +21.8 +18.2 80 +27 +27 душно 1011.7 1001.4
17 13.09 В 1 н/о 1/1 300 м
[Cu Sc]
+23.8 1012.5
18 13.09 З 2
{7}
12 км слаб. дождь 10/8 480 м
[Cu Sc Ac As]
+21.6 +19.0 85 +26 +27 душно 1013.1 1002.8 0.6
19 13.09 ЮВ 1 н/о {дождь} н/о +23.4 +18.9 76 +30 +30 очень
душно
1012.7 1002.5 0.2
20 13.09 СВ 1 н/о 1/1 300 м
[Cu Sc]
+24.8 1012.2
21 13.09 СВ 1
{8}
50 км {дождь} 1/1 480 м
[Cu Sc]
+24.3 +18.5 70 +29 +45 душно 1011.8 1001.6 0.2
22 13.09 СЗ 1 н/о н/о +24.3 +19.4 74 +29 +29 душно 1011.4 1001.2
23 13.09 СЗ 1 н/о н/о +24.2 +18.8 72 +29 +29 душно 1010.9 1000.7
00 14.09 В 1
{6}
50 км {дождь} 3/3 450 м
[Cu Sc]
+23.9 +18.8 73 +29 +36 душно 1010.4 1000.2 +20.1 2
01 14.09 В 1 н/о 3/3 300 м
[Cu Sc]
+23.4 1010.3
02 14.09 В 1 н/о н/о +22.6 +18.8 79 +28 +28 душно 1010.9 1000.7
03 14.09 В 1
{4}
н/о н/о +22.1 +19.1 83 +28 +28 душно 1011.3 1001.0
04 14.09 СЗ 1 н/о н/о +21.8 +18.6 82 +27 +27 душно 1011.9 1001.6
05 14.09 ЮЗ 2 н/о н/о +20.7 +19.5 93 +26 +26 душно 1012.5 1002.2 2
06 14.09 ЮЗ 3
{7}
н/о н/о +20.4 +19.7 96 +25 +25 комфорт 1012.7 1002.4 2
07 14.09 ЮЗ 2 н/о н/о +19.6 +19.1 97 +23 +23 комфорт 1013.0 1002.6 0.2
08 14.09 ЮЗ 2 н/о н/о +19.6 +19.1 97 +23 +23 комфорт 1013.1 1002.7
09 14.09 ЮЗ 2
{7}
н/о н/о +19.4 +18.4 94 +22 +22 комфорт 1013.0 1002.6 0.2
10 14.09 ЮЗ 2 н/о н/о +19.3 +18.0 92 +22 +22 комфорт 1012.6 1002.2
11 14.09 ЮЗ 2 н/о н/о +19.3 +16.7 85 +22 +22 комфорт 1012.6 1002.2
12 14.09 ЮЗ 5
{11}
н/о н/о +19.2 +15.5 79 +20 +20 1012.6 1002.2 +24.9 +24.9 0.2
13 14.09 ЮЗ 3 н/о н/о +18.5 +14.8 79 +19 +19 1012.5 1002.1
14 14.09 ЮЗ 3 н/о н/о +18.8 +15.3 80 +20 +20 1013.3 1002.9
15 14.09 ЮЗ 2
{9}
40 км 1/1 600 м
[Cu hum]
+18.7 +15.6 82 +20 +20 1014.1 1003.7
16 14.09 ЮЗ 2 н/о н/о +19.8 +15.6 77 +23 +23 комфорт 1015.1 1004.7
17 14.09 ЮЗ 2 н/о 1/1 600 м
[Cu hum]
+20.8 1016.1
18 14.09 Ю 5
{9}
40 км 4/4 600 м
[Cu med, cong]
+22.0 +16.0 69 +26 +29 душно 1016.6 1006.3
19 14.09 Ю 3 н/о 3/3 600 м
[Cu med, cong]
+22.3 1016.6
20 14.09 Ю 3 н/о 6/6 600 м
[Cu med, cong]
+21.2 1016.7
21 14.09 Ю 3
{10}
н/о н/о +20.9 +17.1 79 +25 +25 комфорт 1016.2 1005.8
22 14.09 Ю 3 н/о 4/4 600 м
[Cu Sc]
+21.5 1015.6
23 14.09 Ю 3 н/о н/о +20.4 +16.0 76 +24 +24 комфорт 1015.3 1004.9
00 15.09 Ю 5
{9}
40 км 4/4 400 м
[Cu med, cong]
+20.7 +16.5 77 +24 +27 комфорт 1014.9 1004.5 +18.4 3
01 15.09 Ю 3 н/о 3/3 300 м
[Cu med, cong]
+20.2 1015.2
02 15.09 Ю 2 н/о н/о +19.8 +15.4 76 +23 +23 комфорт 1015.6 1005.2
03 15.09 Ю 2
{9}
н/о н/о +19.0 +14.7 76 +21 +21 комфорт 1016.2 1005.8
04 15.09 Ю 2 н/о н/о +18.7 +14.8 78 +20 +20 1016.9 1006.4
05 15.09 Ю 2 н/о н/о +19.1 +15.8 81 +21 +21 комфорт 1017.2 1006.8
06 15.09 Ю 3
{7}
н/о н/о +18.9 +14.8 77 +20 +20 1017.7 1007.2
07 15.09 Ю 2 н/о н/о +19.0 +15.3 79 +21 +21 комфорт 1017.5 1007.1
08 15.09 Ю 2 н/о н/о +19.0 +14.7 76 +21 +21 комфорт 1017.0 1006.6
09 15.09 Ю 1
{6}
н/о н/о +18.7 +14.2 75 +21 +21 комфорт 1017.0 1006.5
10 15.09 Ю 1 н/о н/о +18.9 +14.4 75 +21 +21 комфорт 1016.5 1006.1
11 15.09 Ю 3 н/о н/о +17.8 +15.6 87 +18 +18 1016.5 1006.0
12 15.09 Ю 4
{10}
н/о н/о +17.3 +15.1 87 +17 +17 1016.1 1005.6 +22.3 +22.3
13 15.09 Ю 2 н/о н/о +17.5 +14.4 82 +18 +18 1015.9 1005.4
14 15.09 Ю 2 н/о н/о +19.0 +13.0 68 +21 +21 комфорт 1016.2 1005.8
15 15.09 Ю 2
{7}
30 км 4/4 600 м
[Cu Sc]
+19.1 +13.3 69 +21 +21 комфорт 1016.6 1006.2
16 15.09 Ю 2 н/о 5/5 600 м
[Cu Sc]
+19.5 1017.4
17 15.09 Ю 2 н/о 4/4 600 м
[Cu Sc]
+20.6 1018.1
18 15.09 Ю 3
{9}
30 км 3/3 600 м
[Cu Sc]
+21.3 +14.0 63 +24 +29 комфорт 1018.7 1008.3
19 15.09 Ю 2 н/о н/о +21.5 +13.9 62 +24 +24 комфорт 1018.7 1008.3
20 15.09 ЮВ 2 н/о 3/3 600 м
[Cu Sc]
+22.5 1018.3
21 15.09 Ю 2
{9}
30 км 3/3 600 м
[Cu Sc Ci fib]
+21.6 +14.7 65 +25 +34 комфорт 1018.0 1007.6
22 15.09 Ю 2 н/о 3/3 600 м
[Cu Sc Ci fib]
+21.6 1017.5
23 15.09 Ю 2 н/о 3/3 600 м
[Cu Sc Ci fib]
+21.7 1016.5
00 16.09 Ю 4
{9}
30 км 6/6 600 м
[Cu Sc]
+20.4 +15.0 71 +23 +26 комфорт 1016.5 1006.1 +17.0
01 16.09 Ю 2 н/о 4/3 600 м
[Cu Sc Ci fib]
+20.2 1016.7
02 16.09 Ю 2 н/о н/о +19.3 +14.3 73 +21 +21 комфорт 1017.2 1006.8
03 16.09 Ю 2
{8}
н/о н/о +19.0 +14.0 73 +21 +21 комфорт 1017.9 1007.4
04 16.09 Ю 2 н/о н/о +19.4 +14.0 71 +21 +21 комфорт 1018.5 1008.0
05 16.09 Ю 3 н/о н/о +19.1 +14.6 75 +21 +21 комфорт 1018.7 1008.2
06 16.09 Ю 5
{9}
н/о н/о +19.1 +13.7 71 +20 +20 1019.1 1008.6
07 16.09 Ю 3 н/о н/о +18.8 +14.1 74 +20 +20 1019.5 1009.0
08 16.09 Ю 3 н/о н/о +18.9 +14.8 77 +20 +20 1019.2 1008.7
09 16.09 Ю 3
{10}
н/о н/о +18.4 +14.1 76 +19 +19 1018.8 1008.3
10 16.09 Ю 2 н/о н/о +18.3 +14.2 77 +19 +19 1018.8 1008.3
11 16.09 Ю 2 н/о н/о +18.6 +13.9 74 +20 +20 1018.3 1007.8
12 16.09 Ю 5
{10}
н/о н/о +18.6 +15.1 80 +19 +19 1017.7 1007.2 +22.7 +22.7
13 16.09 Ю 3 н/о н/о +18.4 +13.5 73 +19 +19 1018.0 1007.5
14 16.09 Ю 3 н/о н/о +18.0 +12.4 70 +18 +18 1018.3 1007.8
15 16.09 Ю 3
{9}
30 км 3/3 600 м
[Cu Sc]
+17.9 +12.1 69 +18 +18 1018.7 1008.2
16 16.09 Ю 3 н/о н/о +19.1 +13.5 70 +21 +21 комфорт 1019.5 1009.0
17 16.09 Ю 3 н/о 3/3 600 м
[Cu hum]
+19.9 1020.1
18 16.09 Ю 5
{9}
30 км 1/1 600 м
[Cu hum]
+20.6 +13.1 62 +23 +28 комфорт 1020.2 1009.8
19 16.09 Ю 3 н/о н/о +20.8 +14.0 65 +24 +24 комфорт 1020.4 1010.0
20 16.09 Ю 3 н/о 3/3 600 м
[Cu hum]
+20.9 1020.2
21 16.09 Ю 3
{9}
30 км 3/3 600 м
[Cu hum]
+21.0 +13.7 63 +24 +30 комфорт 1019.8 1009.4
22 16.09 Ю 3 н/о н/о +20.9 +14.3 66 +24 +24 комфорт 1019.5 1009.1
23 16.09 Ю 3 н/о 1/1 600 м
[Cu hum Ci fib]
+20.6 1018.5
00 17.09 Ю 7
{13}
30 км 4/1 450 м
[Cu med, cong Ci fib]
+20.0 +13.0 64 +21 +24 комфорт 1018.4 1008.0 +17.8
01 17.09 Ю 3 н/о 3/1 300 м
[Cu med, cong Ci fib]
+19.8 1019.0
02 17.09 Ю 3 н/о н/о +18.9 +13.3 70 +20 +20 1019.3 1008.8
03 17.09 Ю 3
{11}
н/о н/о +18.6 +13.5 72 +20 +20 1020.0 1009.5
04 17.09 Ю 2 н/о н/о +18.1 +13.0 72 +19 +19 1020.4 1009.9
05 17.09 Ю 3 н/о н/о +18.5 +13.6 73 +19 +19 1021.1 1010.6
06 17.09 Ю 6
{11}
н/о н/о +18.4 +13.0 71 +18 +18 1020.9 1010.4
07 17.09 Ю 3 н/о н/о +18.3 +11.8 66 +19 +19 1020.4 1009.9
08 17.09 Ю 4 н/о н/о +18.4 +11.9 66 +19 +19 1019.6 1009.1
09 17.09 Ю 4
{15}
н/о н/о +18.7 +11.0 61 +19 +19 1019.2 1008.7
10 17.09 Ю 3 н/о н/о +18.5 +11.3 63 +19 +19 1019.3 1008.8
11 17.09 Ю 3 н/о н/о +18.8 +11.4 62 +20 +20 1019.3 1008.8
12 17.09 ЮВ 5
{12}
н/о н/о +18.7 +11.3 62 +19 +19 1019.0 1008.5 +21.4 +21.4
13 17.09 Ю 3 н/о н/о +18.7 +11.0 61 +20 +20 1018.8 1008.3
14 17.09 ЮВ 3 н/о н/о +18.8 +12.5 67 +20 +20 1019.5 1009.0
15 17.09 ЮВ 2
{9}
30 км 9/9 480 м
[Cu Sc]
+18.8 +12.3 66 +20 +20 1019.6 1009.1
16 17.09 ЮВ 2 н/о 4/4 300 м
[Cu med, cong Ac lent]
+19.6 1020.2
17 17.09 ЮВ 2 н/о 3/3 600 м
[Cu med, cong Ac lent]
+20.1 1021.1
18 17.09 Ю 3
{9}
30 км 9/4 600 м
[Cu med, cong Ac lent]
+20.6 +13.3 63 +23 +25 комфорт 1021.1 1010.7
19 17.09 Ю 2 н/о 4/3 600 м
[Cu med, cong Ac lent]
+21.4 1020.9
20 17.09 ЮВ 2 н/о 6/4 600 м
[Cu med, cong Ac lent]
+21.6 1020.4
21 17.09 ЮВ 2
{8}
40 км 9/5 600 м
[Cu Sc Ac lent]
+21.2 +12.3 57 +23 +26 комфорт 1020.0 1009.6
22 17.09 ЮВ 2 н/о 5/4 600 м
[Cu Sc Ac lent]
+21.5 1019.6
23 17.09 ЮВ 2 н/о 5/3 600 м
[Cu Sc Ac lent]
+21.5 1019.0
00 18.09 ЮВ 3
{7}
40 км 5/4 600 м
[Cu Sc Ci sp]
+21.5 +12.3 56 +24 +29 комфорт 1018.5 1008.1 +18.1
01 18.09 ЮВ 2 н/о 1/1 600 м
[Cu hum]
+20.8 1018.6
02 18.09 ЮВ 2 н/о н/о +19.2 +12.0 63 +21 +21 комфорт 1018.8 1008.3
03 18.09 ЮВ 2
{8}
н/о н/о +18.9 +11.7 63 +20 +20 1019.3 1008.8
04 18.09 ЮВ 2 н/о н/о +18.7 +11.5 63 +20 +20 1019.9 1009.4
05 18.09 В 2 н/о н/о +18.6 +11.2 62 +20 +20 1020.0 1009.5
06 18.09 В 3
{6}
н/о н/о +18.7 +10.3 58 +20 +20 1020.3 1009.8
07 18.09 В 1 н/о н/о +18.5 +10.8 61 +20 +20 1019.9 1009.4
08 18.09 СВ 1 н/о н/о +18.6 +11.7 64 +20 +20 1019.3 1008.8
09 18.09 С 1
{6}
н/о н/о +18.6 +11.9 65 +20 +20 1019.0 1008.5
10 18.09 С 1 н/о н/о +18.6 +11.7 64 +20 +20 1018.9 1008.4
11 18.09 С 1 н/о н/о +18.8 +11.1 61 +21 +21 комфорт 1018.5 1008.0
12 18.09 С 2
{6}
н/о н/о +18.7 +11.7 64 +20 +20 1018.0 1007.5 +22.0 +22.0
13 18.09 С 1 н/о н/о +19.0 +11.8 63 +21 +21 комфорт 1018.0 1007.5
14 18.09 С 1 н/о н/о +18.5 +11.3 63 +20 +20 1018.1 1007.6
15 18.09 С 1
{3}
40 км 5/5 480 м
[Cu med, cong]
+18.9 +11.7 63 +21 +21 комфорт 1018.3 1007.8
16 18.09 В 1 н/о 5/5 300 м
[Cu med, cong]
+20.0 +12.2 61 +23 +24 комфорт 1018.9 1008.5
18 18.09 СВ 2
{7}
40 км 4/4 480 м
[Cu med, cong]
+22.4 +15.5 65 +26 +32 жарко 1019.0 1008.7
19 18.09 С 1 н/о 4/4 300 м
[Cu med, cong]
+22.2 +15.1 64 +26 +36 душно 1019.2 1008.8
20 18.09 СВ 1 н/о 4/1 300 м
[Cu med, cong Ci fib]
+23.2 +16.3 65 +28 +45 душно 1018.5 1008.2
21 18.09 С 2
{8}
40 км 3/3 480 м
[Cu med, cong]
+22.6 +15.7 65 +27 +40 душно 1017.4 1007.1
22 18.09 С 3 н/о 3/3 300 м
[Cu med, cong]
+22.4 +16.4 69 +27 +38 душно 1016.3 1006.0
23 18.09 С 3 н/о 6/1 300 м
[Cu med, cong Ci sp]
+22.7 +16.5 68 +27 +37 душно 1015.8 1005.5
00 19.09 С 6
{10}
40 км 6/1 480 м
[Cu med, cong Ci sp]
+21.7 +16.6 73 +26 +29 душно 1015.4 1005.1 +18.4
01 19.09 С 3 н/о 4/4 300 м
[Cu med, cong]
+21.8 +16.1 70 +26 +28 душно 1014.8 1004.5
02 19.09 С 3 н/о н/о +21.1 +15.9 72 +24 +24 комфорт 1015.4 1005.0

 

Местоположение метеостанции Рикитея (Французская Полинезия): широта -23.13 долгота -134.90 высота над уровнем моря 89 м.

В архиве по умолчанию представлена погода в Рикитее за последнюю неделю. Архивные данные за месяц целиком и за предыдущие месяцы, начиная с января 2011 года, Вы можете получить, выбрав интересующий диапазон дат из раскрывающегося списка и нажав кнопку "Ввод!".


*Определитесь, кто Вы:
робот инопланетянин человек

Внимание! Время в таблицах - всемирное. Для получения местного времени необходимо прибавить поправку, которая равна -10 ч.

Смотрите также архив погоды в соседних городах и на ближайших метеорологических станциях:

Погода на Острове Питкерн (Питкерн) (533 км)
Погода на Хао (Французская Полинезия) (841 км)
Погода на Рапа (Французская Полинезия) (1068 км)
Погода в Херехеретуэ (Французская Полинезия) (1105 км)
Погода на Анаа (Французская Полинезия) (1279 км)
Погода на Такароа (Французская Полинезия) (1433 км)
Погода на Тубуаи (Французская Полинезия) (1482 км)
Погода в Атуоне (Французская Полинезия) (1545 км)
Погода в Таутире (Французская Полинезия) (1601 км)
Погода в Таити Фааа (Французская Полинезия) (1653 км)

Пояснения к столбцам:

Ветер - указаны скорость ветра в м/с - средняя за 10 мин, порывы в срок и между сроками (в фигурных скобках) и направление, откуда дует ветер: С - северный, СВ - северо-восточный, В - восточный, ЮВ - юго-восточный, Ю - южный, ЮЗ - юго-западный, З - западный, СЗ - северо-западный.
Видимость - горизонтальная дальность видимости в метрах или километрах. При видимости от 1 до 10 км при отсутствии осадков обычно наблюдается дымка, при ухудшении видимости до 1 км и менее - туман. В сухую погоду видимость может ухудшаться дымом, пылью или мглою.
Явления - указаны атмосферные явления, наблюдавшиеся в срок или в последний час перед сроком; фигурными скобками обозначены явления, наблюдавшиеся между сроками (за 1-3 часа до срока); квадратными скобками обозначены град или гололедные отложения с указанием их диаметра в мм.
Облачность - указаны через наклонную черту общая и нижняя облачность в баллах и высота нижней границы облаков в метрах; квадратными скобками обозначены формы облаков: Ci - перистые, Cs - перисто-слоистые, Cc - перисто-кучевые, Ac - высококучевые, As - высокослоистые, Sc - слоисто-кучевые, Ns - слоисто-дождевые, Cu - кучевые, Cb - кучево-дождевые. Подробнее классификацию облаков см. в Атласе облаков (PDF).
T - Температура воздуха - температура, измеренная на высоте 2 м над землей.
Td - Температура точки росы - температура, при понижении до которой содержащийся в воздухе водяной пар достигнет насыщения.
f - Относительная влажность воздуха - влажноcть воздуха, измеренная на высоте 2 м над землей.
Te - Эффективная температура - температура, которую ощущает одетый по сезону человек в тени. Характеристика душности погоды. При расчете учитывается влияние влажности воздуха и скорости ветра на теплоощущения человека.
Tes - Эффективная температура на солнце - температура, которую ощущает человек, с поправкой на солнечный нагрев. Характеристика знойности погоды. Зависит от высоты солнца над горизонтом, облачности и скорости ветра. Ночью, в пасмурную погоду, а также при ветре 12 м/с и более поправка равна нулю.
P - Атмосферное давление - приведенное к уровню моря атмосферное давление.
Po - Атмосферное давление - измеренное на уровне метеостанции атмосферное давление.
Tmin - Минимальная температура - минимум температуры воздуха на высоте 2 м над землей.
Tmax - Максимальная температура - максимум температуры воздуха на высоте 2 м над землей.
R - Количество осадков - Количество выпавших осадков за период времени, мм. При наведении курсора мыши на число - период времени, за который выпало указанное количество осадков.
R24 - Количество осадков - Количество выпавших осадков за 24 часа, мм.
S - Снежный покров - Высота снежного покрова, см. При наведении курсора мыши на число - состояние снежного покрова и степень покрытия местности в баллах.